TimeEST,TemperatureF,Dew PointF,Humidity,Sea Level PressureIn,VisibilityMPH,Wind Direction,Wind SpeedMPH,Gust SpeedMPH,PrecipitationIn,Events,Conditions,WindDirDegrees,DateUTC
12:12 AM,62.6,60.8,94,30.01,7.0,North,3.5,-,0.02,Rain,Light Rain,10,2013-02-23 05:12:00
12:53 AM,63.0,61.0,93,30.01,4.0,NNW,4.6,-,0.07,Rain,Rain,330,2013-02-23 05:53:00
1:53 AM,62.1,61.0,96,29.99,6.0,North,4.6,-,0.08,Rain,Light Rain,10,2013-02-23 06:53:00
2:15 AM,62.6,62.6,100,29.97,8.0,Calm,Calm,-,0.02,Rain,Light Rain,0,2013-02-23 07:15:00
2:53 AM,63.0,62.1,97,29.96,10.0,Calm,Calm,-,0.02,Rain,Light Rain,0,2013-02-23 07:53:00
3:53 AM,62.1,61.0,96,29.93,9.0,ESE,3.5,-,0.01,,Overcast,110,2013-02-23 08:53:00
4:14 AM,62.6,60.8,94,29.93,7.0,SE,5.8,-,N/A,,Overcast,130,2013-02-23 09:14:00
4:29 AM,62.6,62.6,100,29.93,6.0,South,3.5,-,N/A,,Overcast,170,2013-02-23 09:29:00
4:44 AM,64.4,62.6,94,29.93,7.0,South,3.5,-,N/A,,Overcast,190,2013-02-23 09:44:00
4:53 AM,64.9,64.0,97,29.94,8.0,South,5.8,-,N/A,,Overcast,190,2013-02-23 09:53:00
5:08 AM,66.2,64.4,94,29.93,10.0,SSW,6.9,-,N/A,,Overcast,200,2013-02-23 10:08:00
5:53 AM,66.0,64.9,96,29.94,10.0,SW,8.1,-,N/A,,Overcast,220,2013-02-23 10:53:00
6:29 AM,62.6,62.6,100,29.95,5.0,South,3.5,-,N/A,,Overcast,170,2013-02-23 11:29:00
6:53 AM,63.0,62.1,97,29.94,6.0,South,5.8,-,N/A,,Overcast,170,2013-02-23 11:53:00
7:17 AM,64.4,64.4,100,29.94,7.0,South,5.8,-,N/A,,Overcast,180,2013-02-23 12:17:00
7:53 AM,64.9,64.0,97,29.95,7.0,South,5.8,-,N/A,,Mostly Cloudy,190,2013-02-23 12:53:00
8:53 AM,69.1,66.0,90,29.95,10.0,SSW,6.9,16.1,N/A,,Scattered Clouds,210,2013-02-23 13:53:00
9:01 AM,69.8,66.2,88,29.95,10.0,South,6.9,-,N/A,,Mostly Cloudy,190,2013-02-23 14:01:00
9:53 AM,71.1,66.0,84,29.94,10.0,SSW,10.4,-,N/A,,Overcast,210,2013-02-23 14:53:00
10:02 AM,71.6,66.2,83,29.94,10.0,SSW,11.5,-,N/A,,Overcast,210,2013-02-23 15:02:00
10:53 AM,72.0,64.9,78,29.95,10.0,SW,11.5,-,N/A,,Overcast,230,2013-02-23 15:53:00
11:23 AM,75.2,64.4,69,29.95,10.0,WSW,12.7,19.6,N/A,,Mostly Cloudy,240,2013-02-23 16:23:00
11:53 AM,75.0,64.9,71,29.95,10.0,WSW,10.4,-,N/A,,Overcast,250,2013-02-23 16:53:00
12:53 PM,78.1,64.9,64,29.94,10.0,WSW,11.5,-,N/A,,Mostly Cloudy,250,2013-02-23 17:53:00
1:53 PM,77.0,64.9,66,29.91,10.0,WNW,8.1,-,N/A,,Overcast,300,2013-02-23 18:53:00
2:53 PM,69.1,64.0,84,29.92,10.0,NNW,9.2,17.3,0.01,,Overcast,330,2013-02-23 19:53:00
3:53 PM,71.1,62.1,73,29.88,10.0,NW,5.8,-,N/A,,Overcast,310,2013-02-23 20:53:00
4:53 PM,66.9,61.0,81,29.88,10.0,ESE,4.6,-,N/A,,Mostly Cloudy,110,2013-02-23 21:53:00
5:53 PM,64.0,61.0,90,29.87,10.0,East,4.6,-,N/A,,Overcast,90,2013-02-23 22:53:00
6:53 PM,63.0,61.0,93,29.88,10.0,ESE,3.5,-,N/A,,Overcast,110,2013-02-23 23:53:00
7:24 PM,64.4,60.8,88,29.92,2.0,WSW,4.6,-,0.10,Rain-Thunderstorm,Thunderstorms and Rain,250,2013-02-24 00:24:00
7:29 PM,62.6,60.8,94,29.92,0.8,NW,9.2,-,0.26,Rain-Thunderstorm,Heavy Thunderstorms and Rain,310,2013-02-24 00:29:00
7:36 PM,62.6,62.6,100,29.94,0.8,NNW,12.7,18.4,0.53,Rain-Thunderstorm,Heavy Thunderstorms and Rain,340,2013-02-24 00:36:00
7:39 PM,62.6,62.6,100,29.94,1.0,NNW,13.8,-,0.61,Rain-Thunderstorm,Heavy Thunderstorms and Rain,340,2013-02-24 00:39:00
7:53 PM,63.0,61.0,93,29.95,1.0,WNW,10.4,19.6,1.07,Rain-Thunderstorm,Heavy Thunderstorms and Rain,300,2013-02-24 00:53:00
8:02 PM,62.6,60.8,94,29.95,1.5,Variable,3.5,-,0.12,Rain-Thunderstorm,Heavy Thunderstorms and Rain,0,2013-02-24 01:02:00
8:09 PM,62.6,60.8,94,29.96,2.0,Variable,3.5,-,0.17,Rain,Rain,0,2013-02-24 01:09:00
8:15 PM,62.6,60.8,94,29.96,3.0,WSW,5.8,-,0.19,Rain,Rain,240,2013-02-24 01:15:00
8:24 PM,62.6,60.8,94,29.95,2.0,WSW,4.6,-,0.26,Rain,Heavy Rain,240,2013-02-24 01:24:00
8:40 PM,62.6,60.8,94,29.96,3.0,WNW,3.5,-,0.32,Rain,Rain,290,2013-02-24 01:40:00
8:53 PM,62.1,60.1,93,29.96,5.0,Variable,3.5,-,0.34,Rain,Light Rain,0,2013-02-24 01:53:00
9:53 PM,62.1,60.1,93,29.94,10.0,ESE,4.6,-,0.12,Rain,Light Rain,110,2013-02-24 02:53:00
10:53 PM,61.0,60.1,97,29.92,10.0,SE,6.9,-,0.00,,Overcast,130,2013-02-24 03:53:00
11:53 PM,61.0,59.0,93,29.86,9.0,SSE,12.7,-,0.12,Rain,Light Rain,150,2013-02-24 04:53:00